Regional Weather Roundup
Issued by NWS Little Rock, AR

Home | Current Version | Previous Version | Graphics & Text | Print | Product List | Glossary On
Versions: 1 2 3 4 5 6 7 8 9 10 11 12 13 14 15 16 17 18 19 20 21 22 23 24 25 26 27 28 29 30 31 32 33 34 35 36 37 38 39 40 41 42 43 44 45 46 47 48 49
000
ASUS44 KLZK 270205
RWRLZK

WEATHER ROUNDUP FOR ARKANSAS
NATIONAL WEATHER SERVICE LITTLE ROCK AR
900 PM CDT WED AUG 26 2015

NOTE: "FAIR" INDICATES FEW OR NO CLOUDS BELOW 12,000 FEET WITH NO
SIGNIFICANT WEATHER AND/OR OBSTRUCTIONS TO VISIBILITY.

ARZ001-003-010-029-270300-
NORTHWEST ARKANSAS

CITY           SKY/WX    TMP DP  RH WIND       PRES   REMARKS
FAYETTEVILLE   CLEAR     67  66  97 CALM      30.12R
FORT SMITH     CLEAR     75  63  66 CALM      30.07R
HARRISON       CLEAR     67  63  87 CALM      30.13R
BENTONVILLE    CLEAR     72  57  60 CALM      30.13R
ROGERS         CLEAR     72  64  76 CALM      30.13R
SILOAM SPGS    CLEAR     72  61  68 CALM      30.10S
HIGHFILL       CLEAR     70  63  78 CALM      30.12R
SPRINGDALE     CLEAR     72  63  73 CALM      30.14R
$$

ARZ004-005-016-270300-
NORTH CENTRAL ARKANSAS

CITY           SKY/WX    TMP DP  RH WIND       PRES   REMARKS
BATESVILLE     CLEAR     70  61  73 CALM      30.10R
FLIPPIN        CLEAR     72  61  68 CALM      30.09S
MTN HOME       CLEAR     72  61  68 NE3       30.10S
$$

ARZ040-041-270300-
WEST CENTRAL ARKANSAS

CITY           SKY/WX    TMP DP  RH WIND       PRES   REMARKS
MENA           CLEAR     72  64  78 CALM      30.11R
MOUNT IDA      CLEAR     70  61  73 CALM      30.07R
$$

ARZ009-017-025-026-028-270300-
NORTHEAST ARKANSAS

CITY           SKY/WX    TMP DP  RH WIND       PRES   REMARKS
JONESBORO      CLEAR     65  57  75 NE5       30.08S
NEWPORT        CLEAR     72  60  65 CALM      30.10R
WALNUT RIDGE   CLEAR     70  57  64 NE5       30.09R
BLYTHEVILLE    CLEAR     66  61  84 NE5       30.09R
$$

ARZ022-023-033-042-044-270300-
CENTRAL ARKANSAS

CITY           SKY/WX    TMP DP  RH WIND       PRES   REMARKS
LITTLE ROCK    PTCLDY    78  63  59 E6        30.07R
N LITTLE ROCK  PTCLDY    75  65  72 E5        30.07R
JACKSONVILLE   CLEAR     73  64  73 CALM      30.07R
SEARCY         CLEAR     73  63  70 E3        30.09R
HOT SPRINGS    CLEAR     76  61  59 CALM      30.08R
RUSSELLVILLE   CLEAR     72  66  81 E3        30.07R
$$

ARZ036-270300-
EAST ARKANSAS

CITY           SKY/WX    TMP DP  RH WIND       PRES   REMARKS
WEST MEMPHIS   CLEAR     65  59  81 CALM      30.07R
$$

ARZ050-053-066-070-073-270300-
SOUTHWEST ARKANSAS

CITY           SKY/WX    TMP DP  RH WIND       PRES   REMARKS
ARKADELPHIA    FAIR      71  66  84 CALM      30.06R
CAMDEN         CLEAR     72  64  78 CALM      30.05S
TEXARKANA      CLEAR     76  61  59 CALM      30.06S
EL DORADO      CLEAR     73  62  68 CALM      30.06R
DE QUEEN       CLEAR     72  67  84 NE3       30.04R
$$

ARZ056-057-069-270300-
SOUTHEAST ARKANSAS

CITY           SKY/WX    TMP DP  RH WIND       PRES   REMARKS
PINE BLUFF     CLEAR     70  63  78 NE7       30.07R
STUTTGART      CLEAR     75  61  60 E7        30.08R
MONTICELLO     CLEAR     71  64  78 CALM      30.06S

$$




USA.gov is the U.S. government's official web portal to all federal, state and local government web resources and services.